OBJECT AH, 43789

Orbit data source: Space-Track

You're viewing an Uncataloged Satellite

Recently launched and/or uncataloged satellites may have evolving metadata. Metadata may include but not limited to: Owner, Maufacturer, Bus, Motor, and Mission.

OBJECT AH, 43789 is a satellite in SSO that was launched on Mon, 03 Dec 2018 UTC via an FALCON 9 launch vehicle from the Air Force Western Test Range (AFWTR). Unknown objects in Earth's orbit typically refer to objects detected orbiting the Earth but have not yet been identified or cataloged. These objects could be anything from previously untracked satellites, spent rocket stages, debris from satellite collisions, or even natural meteoroids temporarily captured by Earth's gravity.

Loading next visibility...
Identifier
43789, 2018-099AH
Orbit
SSO
Last TLE update
12 hours ago
Origin
Flag of TBDIrvine Public Schools Foundation (TBD)
Manufacturer
IPSF
Mission
Non-operational Amateur Technology
Bus & Motor
CUBESAT 1U, Unknown motor
Mass
1 kg wet, 1 kg dry
Launch date (UTC)
2018-12-03 (7 years ago)
Launch vehicle
FALCON 9
Launch site
Air Force Western Test Range (AFWTR)
Object type
Unknown
Shape & HBR
Box + 2 Pan, 0.2 m
Radar Cross Section
0.019 m², Small (<0.1 m²)

Expand to show TLE details & history

TLE from 12 hours ago
0 OBJECT AH
1 43789U 18099AH  25181.88979020  .00025731  00000-0  66932-3 0  9995
2 43789  97.4639 250.2069 0009648  72.8717 287.3584 15.38852644360286
Epoch: 2025-06-30T21:21Z
TLE epoch observation values (Epoch: 2025-06-30T21:21:17.873Z)
Latitude
-0.00001°
Longitude
10.68932°
Altitude
450.655 km
Speed
7.643 km/s
True Right ascension
16h 40m 49s
True Declination
0° 00' 00"
Sunlit
Object was in full shadow at epoch
Visualization orbit readout
Latitude
-30.8833°
Longitude
-173.27775°
Altitude
466.155 km
Speed
7.629 km/s
Apparent Right ascension
06h 23m 47s
Apparent Declination
-39° 54' 39"
Sunlit
Object is in daylight
Visualization observer readout
Local Sidereal Time
20:49:46
Azimuth
101.934° ESE
Elevation
-62.207°
Doppler factor
1
Orbital elements
Apogee altitude
453.029 km
Perigee altitude
439.86 km
Semi-major axis
6,824.581 km
Eccentricity
0.00096
Inclination
97.4639°
RAAN
250.2069°
Arg. of periapsis
72.8717°
True anomaly
Unknown
Mean anomaly
287.3584°
Eccentric anomaly
Unknown
Mean motion
3.84972 °/min
Orbital period
93.51 mins
BSTAR
0.00066932
Loading maneuver chart data...
Loading SW <> Apogee altitude chart data...
Loading historical data...
Loading historical data...
Loading historical data...
Loading historical data...
Loading historical data...
Loading historical data...
Loading historical data...

OBJECT AH Visibility forecast

Observer location: undefined°, undefined°

Span
Click to sort rows by Start time (UTC) header in descending order
Start Az.
Max El. time (UTC)
Max El. Az.
Max El.
End time (UTC)
End Az.
4 mins2025-07-01 16:39:31.747Z54.243° ENE2025-07-01 16:41:31.747Z94.797° ESE17.415°2025-07-01 16:43:31.747Z135.466° SSE
5 mins2025-07-02 04:42:31.747Z175.082° S2025-07-02 04:44:31.747Z289.416° WNW43.88°2025-07-02 04:47:31.747Z344.579° N
|